Location: Follega
(52.8850°N, 5.7362°E)
Time: 03:50:54
(UTC+00:00)

Cosmos 2297 Rocket - Pass Details

Date: 01 June 2020
Orbit: 841 x 842 km, 71.0° (Epoch: 04 July)

Event Time Altitude Azimuth Distance (km) Brightness Sun altitude
Rises 22:52:57 0° 329° (NNW) 3,409 6.7 -14.3°
Reaches altitude 10° 22:55:33 10° 336° (NNW) 2,471 5.9 -14.4°
Maximum altitude 23:00:57 43° 48° (NE) 1,166 3.2 -14.5°
Drops below altitude 10° 23:06:19 10° 119° (ESE) 2,459 4.3 -14.6°
Enters shadow 23:07:10 - 122° (ESE) 2,767 4.5 -14.7°
